User: anonymous   Login
Location: Edinburgh
(55.9500°N, 3.1600°W)
Time: 20:34:05
(UTC+01:00)
Language:

N. Korean satellite - Orbit

View from above orbital plane
View from above orbital plane
View from above satellite
View from above satellite

Ground track
Ground track

The orbit data is extracted from the following two-line orbital elements,

1 39026U 12072A   18228.45015542  .00001465  00000-0  56850-4 0  9993
2 39026  97.2105 236.7703 0040812 108.4038 252.1645 15.26904273314858
Epoch (UTC): 16 August 2018 10:48:13
Eccentricity: 0.0040812
inclination: 97.2105°
perigee height: 457 km
apogee height: 513 km
right ascension of ascending node: 236.7703°
argument of perigee: 108.4038°
revolutions per day: 15.26904273
mean anomaly at epoch: 252.1645°
orbit number at epoch: 31485

The dashed part of the orbit path shows where the satellite is in the earth's shadow,  

DLR